Date String (YYYY-MM-DD hh:mm:ss) UTC,Instrument flags,absolute air pressure of the measurement (hPa),sample flow rate (lpm),inlet stack bypass flow (lpm),air temperature of the measurement (°C),ambient temperature measured by the external sensor (°C),aerosol sample conditioner tube jacket temperature (°C),OPC LED temperature (°C),internal box temperature (°C),relative humidity of the measurement (%),span deviation,mass concentration of particles derived from Lorenz-Mie calculation of OPC scattering (μg/m³),mass concentration of particles derived from Lorenz-Mie calculation of OPC scattering (μg/m³),mass concentration of particles derived from Lorenz-Mie calculation of OPC scattering (μg/m³)
DateTimeUTC,F1_M11,P_M11,Q1_M11,Q2_M11,T1_M11,T2_M11,T3_M11,T4_M11,T5_M11,U1_M11,ZSPAN_M11,X2_M11,X0_M11,X1_M11
2023-11-15 11:00:00,SystemResetWarning,0833.4,5.00,000.00,026.5,025.3,000.0,034.9,027.8,7.1,-002.4,0006.03,0019.91,0004.60
2023-11-15 11:01:00,SystemResetWarning,0833.4,5.00,000.00,026.5,025.2,000.0,034.9,027.8,7.1,-001.3,0006.05,0019.46,0004.60
2023-11-15 11:02:00,SystemResetWarning,0833.4,5.00,000.00,026.5,025.2,000.0,034.9,027.8,7.1,-001.9,0006.02,0018.69,0004.59
2023-11-15 11:03:00,SystemResetWarning,0833.4,5.00,000.00,026.4,025.2,000.0,034.9,027.8,7.4,-001.2,0006.01,0018.98,0004.60
2023-11-15 11:04:00,SystemResetWarning,0833.4,5.01,000.00,026.4,025.2,000.0,034.9,027.8,7.4,-000.3,0005.99,0019.67,0004.59
2023-11-15 11:05:00,SystemResetWarning,0833.4,5.00,000.00,026.4,025.2,000.0,034.9,027.8,7.2,0000.2,0006.01,0020.44,0004.59
2023-11-15 11:06:00,SystemResetWarning,0833.4,5.01,000.00,026.4,025.2,000.0,034.9,027.8,7.1,0001.6,0006.04,0020.34,0004.60
2023-11-15 11:07:00,SystemResetWarning,0833.4,5.00,000.00,026.4,025.1,000.0,034.9,027.8,7.0,0002.8,0006.02,0020.10,0004.60
2023-11-15 11:08:00,SystemResetWarning,0833.5,5.00,000.00,026.4,025.1,000.0,034.9,027.7,7.0,0003.1,0006.01,0020.15,0004.61
2023-11-15 11:09:00,SystemResetWarning,0833.5,5.00,000.00,026.4,025.1,000.0,034.8,027.7,7.1,0003.0,0006.01,0019.97,0004.59
2023-11-15 11:10:00,SystemResetWarning,0833.5,5.00,000.00,026.4,025.1,000.0,034.8,027.7,7.3,0002.8,0006.01,0017.83,0004.57
2023-11-15 11:11:00,SystemResetWarning,0833.5,5.00,000.00,026.4,025.1,000.0,034.8,027.7,7.4,0003.6,0006.02,0017.16,0004.56
2023-11-15 11:12:00,SystemResetWarning,0833.5,5.00,000.00,026.3,025.1,000.0,034.8,027.7,7.6,0003.8,0006.03,0017.07,0004.56
2023-11-15 11:13:00,SystemResetWarning,0833.5,5.00,000.00,026.3,025.0,000.0,034.8,027.7,7.4,0004.0,0006.08,0016.80,0004.57
2023-11-15 11:14:00,SystemResetWarning,0833.4,5.00,000.00,026.3,025.0,000.0,034.8,027.7,7.3,0004.3,0006.07,0017.17,0004.57
2023-11-15 11:15:00,SystemResetWarning,0833.4,5.00,000.00,026.3,025.0,000.0,034.8,027.6,7.3,0005.0,0006.06,0017.00,0004.59
2023-11-15 11:16:00,SystemResetWarning,0833.4,5.00,000.00,026.3,025.0,000.0,034.8,027.6,7.6,0005.2,0005.97,0016.59,0004.57
2023-11-15 11:17:00,SystemResetWarning,0833.4,5.00,000.00,026.3,025.0,000.0,034.8,027.6,7.6,0004.8,0005.93,0016.27,0004.54
2023-11-15 11:18:00,SystemResetWarning,0833.4,5.00,000.00,026.3,025.0,000.0,034.7,027.6,7.5,0004.9,0005.95,0016.40,0004.51
2023-11-15 11:19:00,SystemResetWarning,0833.4,5.01,000.00,026.3,025.0,000.0,034.7,027.6,7.3,-005.2,0005.93,0016.37,0004.50
2023-11-15 11:20:00,SystemResetWarning,0833.4,5.01,000.00,026.3,025.0,000.0,034.7,027.6,7.3,-002.5,0005.89,0017.06,0004.51
2023-11-15 11:21:00,SystemResetWarning,0833.4,4.99,000.00,026.2,024.9,000.0,034.7,027.6,7.3,0007.0,0005.87,0017.67,0004.51
2023-11-15 11:22:00,SystemResetWarning,0833.4,4.99,000.00,026.2,024.9,000.0,034.7,027.6,7.3,0006.5,0005.77,0017.55,0004.47
2023-11-15 11:23:00,SystemResetWarning,0833.4,5.00,000.00,026.2,024.9,000.0,034.7,027.6,7.3,0006.3,0005.70,0017.62,0004.43
2023-11-15 11:24:00,SystemResetWarning,0833.4,5.00,000.00,026.2,024.9,000.0,034.7,027.5,7.4,0005.8,0005.64,0019.28,0004.40
2023-11-15 11:25:00,SystemResetWarning,0833.4,5.01,000.00,026.2,024.9,000.0,034.7,027.5,7.3,0006.1,0005.59,0018.83,0004.37
2023-11-15 11:26:00,SystemResetWarning,0833.4,5.00,000.00,026.2,024.9,000.0,034.7,027.5,7.3,0006.3,0005.59,0018.15,0004.35
2023-11-15 11:27:00,SystemResetWarning,0833.4,5.00,000.00,026.2,024.9,000.0,034.6,027.5,7.3,0006.4,0005.64,0017.48,0004.36
2023-11-15 11:28:00,SystemResetWarning,0833.4,4.99,000.00,026.1,024.9,000.0,034.6,027.5,7.3,0006.3,0005.64,0018.00,0004.38
2023-11-15 11:29:00,SystemResetWarning,0833.4,5.00,000.00,026.1,024.9,000.0,034.6,027.5,7.3,0006.1,0005.59,0018.28,0004.39
2023-11-15 11:30:00,SystemResetWarning,0833.4,5.00,000.00,026.1,024.8,000.0,034.6,027.4,7.4,0005.7,0005.61,0018.49,0004.39
2023-11-15 11:31:00,SystemResetWarning,0833.4,5.00,000.00,026.1,024.8,000.0,034.6,027.4,7.4,0005.2,0005.61,0018.65,0004.37
2023-11-15 11:32:00,SystemResetWarning,0833.4,5.00,000.00,026.1,024.9,000.0,034.6,027.4,7.4,0001.0,0005.58,0018.22,0004.35
2023-11-15 11:33:00,SystemResetWarning,0833.4,5.00,000.00,026.1,024.9,000.0,034.6,027.4,7.4,0002.8,0005.61,0019.24,0004.37
2023-11-15 11:34:00,SystemResetWarning,0833.4,5.00,000.00,026.1,024.9,000.0,034.6,027.4,7.4,0000.0,0005.61,0019.70,0004.39
2023-11-15 11:35:00,SystemResetWarning,0833.4,5.00,000.00,026.1,024.9,000.0,034.6,027.4,7.4,0000.0,0005.59,0018.30,0004.38
2023-11-15 11:36:00,SystemResetWarning,0833.4,5.00,000.00,026.1,024.9,000.0,034.5,027.4,7.3,0000.0,0005.58,0017.62,0004.36
2023-11-15 11:37:00,SystemResetWarning,0833.4,5.00,000.00,026.1,024.9,000.0,034.5,027.5,7.2,0000.0,0005.54,0017.28,0004.33
2023-11-15 11:38:00,SystemResetWarning,0833.4,5.00,000.00,026.1,024.9,000.0,034.5,027.4,7.1,0000.0,0005.53,0017.31,0004.31
2023-11-15 11:39:00,SystemResetWarning,0833.4,5.00,000.00,026.1,024.8,000.0,034.5,027.4,7.0,0000.0,0005.51,0017.02,0004.29
2023-11-15 11:40:00,SystemResetWarning,0833.4,5.00,000.00,026.0,024.8,000.0,034.5,027.4,7.1,0000.0,0005.52,0016.18,0004.27
2023-11-15 11:41:00,SystemResetWarning,0833.3,5.00,000.00,026.0,024.8,000.0,034.5,027.4,7.2,0000.0,0005.53,0015.90,0004.26
2023-11-15 11:42:00,SystemResetWarning,0833.3,4.99,000.00,026.0,024.8,000.0,034.5,027.4,7.4,0000.0,0005.53,0014.98,0004.25
2023-11-15 11:43:00,SystemResetWarning,0833.3,5.00,000.00,026.0,024.8,000.0,034.5,027.3,7.4,0003.1,0005.56,0015.51,0004.26
2023-11-15 11:44:00,SystemResetWarning,0833.3,5.00,000.00,026.0,024.7,000.0,034.5,027.3,7.3,0002.6,0005.60,0014.83,0004.29
2023-11-15 11:45:00,SystemResetWarning,0833.2,5.00,000.00,026.0,024.7,000.0,034.5,027.3,7.1,0005.0,0005.70,0014.24,0004.34
2023-11-15 11:46:00,SystemResetWarning,0833.2,5.01,000.00,026.0,024.7,000.0,034.5,027.3,7.0,0008.6,0005.75,0015.04,0004.38
2023-11-15 11:47:00,SystemResetWarning,0833.3,5.01,000.00,026.0,024.7,000.0,034.4,027.3,7.0,0006.2,0005.83,0015.81,0004.42
2023-11-15 11:48:00,SystemResetWarning,0833.3,5.01,000.00,026.0,024.7,000.0,034.4,027.3,7.0,0002.4,0005.83,0017.62,0004.40
2023-11-15 11:49:00,SystemResetWarning,0833.3,5.00,000.00,025.9,024.7,000.0,034.4,027.3,7.0,0003.8,0005.79,0018.72,0004.37
2023-11-15 11:50:00,SystemResetWarning,0833.3,4.99,000.00,025.9,024.7,000.0,034.4,027.3,7.0,0004.0,0005.80,0018.94,0004.38
2023-11-15 11:51:00,SystemResetWarning,0833.3,5.00,000.00,025.9,024.7,000.0,034.4,027.3,7.2,0004.5,0005.85,0019.61,0004.41
2023-11-15 11:52:00,SystemResetWarning,0833.3,5.01,000.00,025.9,024.6,000.0,034.4,027.3,7.2,0004.2,0005.91,0020.42,0004.44
2023-11-15 11:53:00,SystemResetWarning,0833.3,5.00,000.00,025.9,024.6,000.0,034.4,027.3,7.2,0003.6,0005.98,0021.37,0004.48
2023-11-15 11:54:00,SystemResetWarning,0833.3,5.01,000.00,025.9,024.7,000.0,034.4,027.2,7.2,0003.6,0006.05,0021.02,0004.51
2023-11-15 11:55:00,SystemResetWarning,0833.3,5.00,000.00,025.9,024.7,000.0,034.4,027.2,7.2,0003.8,0006.09,0021.04,0004.52
2023-11-15 11:56:00,SystemResetWarning,0833.3,5.00,000.00,025.9,024.7,000.0,034.4,027.2,7.3,0003.7,0006.04,0021.10,0004.49
2023-11-15 11:57:00,SystemResetWarning,0833.4,5.00,000.00,025.9,024.7,000.0,034.3,027.2,7.5,0003.3,0005.99,0019.92,0004.45
2023-11-15 11:58:00,SystemResetWarning,0833.3,4.99,000.00,025.9,024.6,000.0,034.3,027.2,7.7,0004.5,0005.95,0019.37,0004.43
2023-11-15 11:59:00,SystemResetWarning,0833.3,4.99,000.00,025.9,024.6,000.0,034.3,027.2,7.5,0004.7,0005.98,0017.82,0004.46
